Regional Weather Roundup
Issued by NWS Kansas City/Pleasant Hill, MO

Home | Current Version | Previous Version | Text Only | Print | Product List | Glossary On
Versions: 1 2 3 4 5 6 7 8 9 10 11 12 13 14 15 16 17 18 19 20 21 22 23 24 25 26 27 28 29 30 31 32 33 34 35 36 37 38 39 40 41 42 43 44 45 46 47 48 49 50
000
ASUS43 KEAX 221704
RWREAX

WEATHER ROUNDUP FOR EASTERN KANSAS AND NORTHWEST MISSOURI
NATIONAL WEATHER SERVICE KANSAS CITY/PLEASANT HILL MO
1200 PM CDT TUE JUL 22 2014

KSZ040-057-103>105-MOZ028-029-037-043-221800-
...KANSAS CITY METROPOLITAN AREA...

CITY           SKY/WX    TMP DP  RH WIND       PRES   REMARKS
K.C. INTL      MOSUNNY   88  77  69 SW12      30.04S HX 100
K.C. DOWNTOWN  SUNNY     91  76  61 SW8       30.02F HX 103
LEES SUMMIT    SUNNY     87  76  69 SW14      30.05S HX  97
OLATHE - IXD   SUNNY     90  76  63 SW10      30.06S HX 101
OLATHE - OJC   SUNNY     87  76  69 SW9       30.06R HX  97
LAWRENCE       SUNNY     91  76  61 SW9       30.04F HX 103

$$

MOZ001>008-011>017-020>025-030>033-038>040-044>046-053-054-221800-
...NORTHERN AND CENTRAL MISSOURI...

CITY           SKY/WX    TMP DP  RH WIND       PRES   REMARKS
ST. JOSEPH     NOT AVBL
MOSBY          SUNNY     88  73  62 SW6       30.03S HX  96
WHITEMAN AFB   MOSUNNY   88  72  59 SW14      30.05R HX  94
CLINTON        SUNNY     88  77  70 SW10      30.07S HX 100
SEDALIA        SUNNY     89  75  63 SW13G18   30.06S HX  99
WARSAW         NOT AVBL
MARSHALL       SUNNY     88  77  70 SW8       30.05S HAZE    HX 100
CHILLICOTHE      N/A     88  76  67 VRB5      30.02F HX  99
KIRKSVILLE     PTSUNNY   85  76  74 S9        30.04F HX  94

$$

MOZ041-047>049-056>058-063>065-088>090-097-221800-
...EASTERN AND SOUTHERN MISSOURI...

CITY           SKY/WX    TMP DP  RH WIND       PRES   REMARKS
ST. LOUIS INTL PTSUNNY   89  69  51 VRB3      30.09R HX  93
SPIRIT OF STL  PTSUNNY   87  70  56 W6        30.07R HX  92
COLUMBIA       PTSUNNY   88  76  67 SW7       30.07S HX  99
JEFFERSON CITY MOSUNNY   87  74  64 VRB5      30.05S HX  95
HANNIBAL       CLOUDY    77  68  73 SE9G16    30.05F
ROLLA          SUNNY     85  71  63 W6        30.08F HX  90
LEBANON        MOSUNNY   86  72  62 W7        30.12S HX  92
OSAGE BEACH    SUNNY     86  72  62 W6        30.08S HX  92
SPRINGFIELD    MOSUNNY   86  72  62 VRB6      30.12R HX  92
BRANSON        SUNNY     90  70  51 SE5       30.14  HX  95
NEVADA         SUNNY     88  77  70 SW8       30.09S HX 100
JOPLIN         SUNNY     89  73  59 SW12      30.10S HX  97
WEST PLAINS    SUNNY     82  69  64 VRB5      30.14S
MALDEN         SUNNY     86  68  54 S5        30.10F

$$

IAZ060-094-KSZ022-034>040-054-083-096-NEZ052-066-093-221800-
...KANSAS...SOUTHEAST NEBRASKA AND IOWA...

CITY           SKY/WX    TMP DP  RH WIND       PRES   REMARKS
TOPEKA         SUNNY     93  73  52 CALM      30.03F HX 102
MANHATTAN      MOSUNNY   94  68  42 SW9       30.03S HX  98
EMPORIA        SUNNY     92  73  53 W7        30.07R HX 100
CHANUTE        SUNNY     90  74  59 W13       30.08S HX  99
WICHITA        MOSUNNY   90  74  59 SW10      30.07S HX  99
OMAHA          PTSUNNY   92  73  53 VRB3      29.99R HX 100
LINCOLN        MOSUNNY   92  73  53 E7        30.02R HX 100
FALLS CITY     SUNNY     93  74  53 VRB6      30.00S HX 103
LAMONI         MOSUNNY   85  77  77 SW7       30.01R HX  95
DES MOINES     CLOUDY    88  77  69 SE10      29.95F HX 100

$$




USA.gov is the U.S. government's official web portal to all federal, state and local government web resources and services.